Location: Moscow
(55.7500°N, 37.5830°E)
Time: 21:17:51
(UTC+03:00)

ISS - Pass Details

Date: 18 May 2021
Orbit: 417 x 422 km, 51.6° (Epoch: 16 June)

Event Time Altitude Azimuth Distance (km) Brightness Sun altitude
Rises 22:20:31 0° 247° (WSW) 2,363 0.1 -10.0°
Reaches altitude 10° 22:22:41 10° 238° (WSW) 1,501 -1.0 -10.1°
Maximum altitude 22:25:49 37° 170° (S) 673 -3.2 -10.3°
Drops below altitude 10° 22:28:59 10° 101° (ESE) 1,507 -1.3 -10.5°
Enters shadow 22:30:36 - 95° (E) 2,149 -0.5 -10.6°
